WUK4SW EGGW-EPLB

Flight info

Callsign WUK4SW
Flight time 2h 19m
Altitude 35000
Route MATCH Q295 BRAIN M197 REDFA L620 TACHA DCT ZUCKA DCT GOBAX DCT LASIS DCT KOTEK T709 LULIN T375 GAVDU
Aircraft A321/M-SDE3FGHIRWY/LB1

Departure

Time 2026-04-28 14:48
Airport London Luton Airport (EGGW)

Arrival

Time 2026-04-28 17:08
Airport Lublin Airport (EPLB)
Time Latitude Longitude Altitude Speed Heading
2026-04-28 13:59 51.88065 -0.37446 509 ft 0 kts 342°
2026-04-28 14:33 51.88043 -0.37434 508 ft 3 kts 342°
2026-04-28 14:34 51.88002 -0.37411 508 ft 4 kts 23°
2026-04-28 14:34 51.88005 -0.37406 508 ft 4 kts 29°
2026-04-28 14:34 51.88004 -0.37397 508 ft 0 kts 72°
2026-04-28 14:39 51.88004 -0.37396 508 ft 1 kts 72°
2026-04-28 14:39 51.88013 -0.37351 508 ft 7 kts 72°
2026-04-28 14:39 51.88034 -0.37251 508 ft 12 kts 72°
2026-04-28 14:40 51.88017 -0.37132 508 ft 14 kts 157°
2026-04-28 14:40 51.87951 -0.37096 509 ft 17 kts 162°
2026-04-28 14:40 51.87788 -0.37012 516 ft 19 kts 162°
2026-04-28 14:40 51.87678 -0.36954 523 ft 14 kts 164°
2026-04-28 14:41 51.87615 -0.37054 522 ft 17 kts 247°
2026-04-28 14:41 51.87582 -0.37242 522 ft 16 kts 257°
2026-04-28 14:41 51.87580 -0.37417 523 ft 13 kts 253°
2026-04-28 14:41 51.87505 -0.37533 522 ft 17 kts 246°
2026-04-28 14:42 51.87476 -0.37696 523 ft 16 kts 255°
2026-04-28 14:42 51.87442 -0.37895 523 ft 20 kts 254°
2026-04-28 14:42 51.87382 -0.38054 523 ft 16 kts 208°
2026-04-28 14:42 51.87357 -0.38075 523 ft 0 kts 207°
2026-04-28 14:46 51.87335 -0.38093 522 ft 0 kts 206°
2026-04-28 14:46 51.87308 -0.38113 522 ft 8 kts 199°
2026-04-28 14:47 51.87249 -0.38089 524 ft 10 kts 111°
2026-04-28 14:47 51.87257 -0.38029 524 ft 0 kts 73°
2026-04-28 14:47 51.87257 -0.38026 524 ft 0 kts 73°
2026-04-28 14:48 51.87318 -0.37680 522 ft 74 kts 75°
2026-04-28 14:48 51.87522 -0.36474 526 ft 143 kts 79°
2026-04-28 14:48 51.87809 -0.34822 1152 ft 154 kts 70°
2026-04-28 14:48 51.88099 -0.33107 2042 ft 165 kts 71°
2026-04-28 14:49 51.88435 -0.31188 2657 ft 191 kts 71°
2026-04-28 14:49 51.88816 -0.29027 3050 ft 213 kts 71°
2026-04-28 14:49 51.89240 -0.26609 3396 ft 232 kts 71°
2026-04-28 14:49 51.89572 -0.24009 4075 ft 241 kts 89°
2026-04-28 14:50 51.89056 -0.21409 4872 ft 252 kts 123°
2026-04-28 14:50 51.87651 -0.19674 5733 ft 261 kts 148°
2026-04-28 14:50 51.85999 -0.18453 6586 ft 261 kts 150°
2026-04-28 14:50 51.84329 -0.17284 7331 ft 262 kts 150°
2026-04-28 14:51 51.82642 -0.16113 8073 ft 265 kts 151°
2026-04-28 14:51 51.80943 -0.14925 8912 ft 268 kts 151°
2026-04-28 14:51 51.79232 -0.13716 9673 ft 269 kts 151°
2026-04-28 14:51 51.77515 -0.12474 10405 ft 271 kts 148°
2026-04-28 14:52 51.76087 -0.10574 11001 ft 266 kts 122°
2026-04-28 14:52 51.75381 -0.07899 11578 ft 265 kts 97°
2026-04-28 14:52 51.75425 -0.04883 11973 ft 279 kts 84°
2026-04-28 14:52 51.75679 -0.01651 12103 ft 301 kts 83°
2026-04-28 14:53 51.75974 0.01812 12148 ft 321 kts 83°
2026-04-28 14:53 51.76289 0.05440 12575 ft 331 kts 83°
2026-04-28 14:53 51.76610 0.09149 13191 ft 335 kts 83°
2026-04-28 14:53 51.76930 0.12893 13825 ft 339 kts 83°
2026-04-28 14:54 51.77247 0.16678 14420 ft 342 kts 83°
2026-04-28 14:54 51.77560 0.20496 15031 ft 344 kts 83°
2026-04-28 14:54 51.77870 0.24341 15655 ft 345 kts 83°
2026-04-28 14:54 51.78181 0.28187 16280 ft 347 kts 83°
2026-04-28 14:55 51.78492 0.32006 16905 ft 348 kts 83°
2026-04-28 14:55 51.78808 0.35890 17530 ft 350 kts 83°
2026-04-28 14:55 51.79121 0.39800 18148 ft 351 kts 83°
2026-04-28 14:55 51.79434 0.43724 18731 ft 353 kts 83°
2026-04-28 14:56 51.79746 0.47673 19250 ft 355 kts 83°
2026-04-28 14:56 51.80058 0.51641 19774 ft 358 kts 83°
2026-04-28 14:56 51.80369 0.55644 20304 ft 359 kts 83°
2026-04-28 14:56 51.80679 0.59663 20814 ft 361 kts 83°
2026-04-28 14:57 51.80993 0.63708 21300 ft 363 kts 83°
2026-04-28 14:57 51.81291 0.66372 21607 ft 365 kts 77°
2026-04-28 14:57 51.82118 0.71673 22237 ft 368 kts 77°
2026-04-28 14:57 51.82741 0.75696 22703 ft 370 kts 77°
2026-04-28 14:58 51.83365 0.79752 23165 ft 372 kts 77°
2026-04-28 14:58 51.84008 0.83822 23606 ft 375 kts 76°
2026-04-28 14:58 51.84717 0.87896 24028 ft 377 kts 75°
2026-04-28 14:58 51.85471 0.91974 24379 ft 380 kts 74°
2026-04-28 14:59 51.86244 0.96069 24733 ft 382 kts 74°
2026-04-28 14:59 51.87020 1.00194 25079 ft 384 kts 74°
2026-04-28 14:59 51.87793 1.04348 25413 ft 387 kts 74°
2026-04-28 14:59 51.88561 1.08535 25748 ft 389 kts 75°
2026-04-28 15:00 51.89322 1.12748 26083 ft 391 kts 75°
2026-04-28 15:00 51.90082 1.16992 26414 ft 393 kts 75°
2026-04-28 15:00 51.90841 1.21259 26735 ft 396 kts 75°
2026-04-28 15:00 51.91593 1.25496 27038 ft 398 kts 75°
2026-04-28 15:01 51.92362 1.29818 27354 ft 400 kts 75°
2026-04-28 15:01 51.93139 1.34165 27652 ft 402 kts 75°
2026-04-28 15:01 51.93920 1.38530 27966 ft 404 kts 75°
2026-04-28 15:01 51.94702 1.42911 28264 ft 406 kts 75°
2026-04-28 15:02 51.95482 1.47312 28582 ft 407 kts 75°
2026-04-28 15:02 51.96264 1.51742 28890 ft 409 kts 75°
2026-04-28 15:02 51.97047 1.56185 29201 ft 411 kts 75°
2026-04-28 15:02 51.97832 1.60661 29509 ft 413 kts 75°
2026-04-28 15:03 51.98617 1.65149 29805 ft 415 kts 75°
2026-04-28 15:03 51.99391 1.69603 30115 ft 415 kts 75°
2026-04-28 15:03 52.00135 1.74122 30499 ft 414 kts 76°
2026-04-28 15:03 52.00843 1.78642 30821 ft 413 kts 76°
2026-04-28 15:04 52.01531 1.83168 31114 ft 413 kts 76°
2026-04-28 15:04 52.02215 1.87715 31403 ft 413 kts 76°
2026-04-28 15:04 52.02899 1.92247 31689 ft 413 kts 76°
2026-04-28 15:04 52.03590 1.96793 31977 ft 414 kts 76°
2026-04-28 15:05 52.04281 2.01320 32254 ft 414 kts 76°
2026-04-28 15:05 52.04978 2.05855 32534 ft 414 kts 76°
2026-04-28 15:05 52.05675 2.10402 32806 ft 414 kts 76°
2026-04-28 15:05 52.06370 2.14937 33085 ft 414 kts 76°
2026-04-28 15:06 52.07063 2.19475 33356 ft 414 kts 76°
2026-04-28 15:06 52.07745 2.23957 33621 ft 414 kts 76°
2026-04-28 15:06 52.08435 2.28514 33888 ft 414 kts 76°
2026-04-28 15:06 52.09119 2.33057 34139 ft 414 kts 76°
2026-04-28 15:07 52.09801 2.37614 34388 ft 414 kts 76°
2026-04-28 15:07 52.10479 2.42165 34596 ft 414 kts 76°
2026-04-28 15:07 52.11159 2.46729 34777 ft 415 kts 76°
2026-04-28 15:07 52.11866 2.51279 34957 ft 416 kts 75°
2026-04-28 15:08 52.12673 2.55810 35142 ft 417 kts 73°
2026-04-28 15:08 52.13546 2.60324 35265 ft 417 kts 72°
2026-04-28 15:08 52.14428 2.64739 35291 ft 414 kts 72°
2026-04-28 15:09 52.16197 2.73642 35291 ft 412 kts 72°
2026-04-28 15:09 52.17903 2.82562 35289 ft 412 kts 73°
2026-04-28 15:10 52.19571 2.91493 35287 ft 412 kts 73°
2026-04-28 15:10 52.21220 3.00383 35292 ft 412 kts 73°
2026-04-28 15:11 52.22881 3.09336 35289 ft 412 kts 73°
2026-04-28 15:11 52.24539 3.18294 35290 ft 413 kts 73°
2026-04-28 15:12 52.25430 3.27510 35287 ft 414 kts 90°
2026-04-28 15:12 52.25051 3.36917 35294 ft 415 kts 92°
2026-04-28 15:13 52.24641 3.46270 35291 ft 416 kts 92°
2026-04-28 15:13 52.24216 3.55688 35282 ft 417 kts 92°
2026-04-28 15:14 52.23783 3.65137 35290 ft 417 kts 92°
2026-04-28 15:14 52.23342 3.74578 35283 ft 417 kts 92°
2026-04-28 15:15 52.22885 3.84028 35288 ft 418 kts 92°
2026-04-28 15:15 52.22424 3.93480 35288 ft 419 kts 92°
2026-04-28 15:16 52.21960 4.02898 35281 ft 419 kts 92°
2026-04-28 15:16 52.21489 4.12384 35268 ft 420 kts 92°
2026-04-28 15:17 52.21010 4.21871 35257 ft 420 kts 92°
2026-04-28 15:17 52.20520 4.31378 35252 ft 421 kts 93°
2026-04-28 15:18 52.20020 4.40893 35254 ft 421 kts 93°
2026-04-28 15:18 52.19514 4.50423 35282 ft 422 kts 93°
2026-04-28 15:19 52.18998 4.59965 35282 ft 423 kts 93°
2026-04-28 15:19 52.18471 4.69518 35280 ft 424 kts 93°
2026-04-28 15:20 52.17937 4.79035 35287 ft 424 kts 93°
2026-04-28 15:20 52.17395 4.88626 35283 ft 425 kts 93°
2026-04-28 15:21 52.16845 4.98233 35277 ft 426 kts 93°
2026-04-28 15:21 52.16281 5.07838 35269 ft 427 kts 94°
2026-04-28 15:22 52.15716 5.17401 35262 ft 427 kts 94°
2026-04-28 15:22 52.15137 5.27050 35254 ft 428 kts 94°
2026-04-28 15:23 52.14555 5.36702 35253 ft 429 kts 94°
2026-04-28 15:23 52.13963 5.46378 35246 ft 429 kts 94°
2026-04-28 15:24 52.13363 5.56007 35247 ft 430 kts 94°
2026-04-28 15:24 52.12747 5.65700 35252 ft 431 kts 94°
2026-04-28 15:25 52.12121 5.75409 35254 ft 431 kts 94°
2026-04-28 15:25 52.11484 5.85122 35258 ft 432 kts 94°
2026-04-28 15:26 52.10845 5.94849 35259 ft 433 kts 94°
2026-04-28 15:26 52.10202 6.04575 35259 ft 433 kts 94°
2026-04-28 15:27 52.09543 6.14312 35257 ft 433 kts 94°
2026-04-28 15:27 52.08885 6.23996 35252 ft 434 kts 94°
2026-04-28 15:28 52.08209 6.33750 35248 ft 434 kts 94°
2026-04-28 15:28 52.07529 6.43523 35250 ft 435 kts 94°
2026-04-28 15:29 52.06835 6.53300 35250 ft 436 kts 94°
2026-04-28 15:29 52.06249 6.61436 35250 ft 436 kts 94°
2026-04-28 15:30 52.05424 6.72846 35247 ft 437 kts 94°
2026-04-28 15:30 52.04705 6.82669 35247 ft 438 kts 94°
2026-04-28 15:31 52.04096 6.90858 35246 ft 439 kts 95°
2026-04-28 15:31 52.03356 7.00735 35248 ft 440 kts 94°
2026-04-28 15:32 52.02605 7.10616 35250 ft 441 kts 94°
2026-04-28 15:32 52.01846 7.20524 35258 ft 442 kts 95°
2026-04-28 15:33 52.01077 7.30450 35267 ft 444 kts 94°
2026-04-28 15:33 52.00301 7.40329 35273 ft 444 kts 95°
2026-04-28 15:34 51.99512 7.50287 35276 ft 445 kts 95°
2026-04-28 15:34 51.98712 7.60265 35277 ft 446 kts 95°
2026-04-28 15:35 51.97909 7.70270 35280 ft 447 kts 95°
2026-04-28 15:35 51.96676 7.85279 35275 ft 448 kts 95°
2026-04-28 15:36 51.95837 7.95296 35274 ft 449 kts 95°
2026-04-28 15:36 51.94997 8.05271 35271 ft 450 kts 95°
2026-04-28 15:37 51.94142 8.15331 35263 ft 451 kts 95°
2026-04-28 15:37 51.93273 8.25417 35268 ft 452 kts 95°
2026-04-28 15:38 51.92406 8.35437 35267 ft 452 kts 95°
2026-04-28 15:38 51.91525 8.45552 35266 ft 453 kts 96°
2026-04-28 15:39 51.90629 8.55668 35265 ft 454 kts 96°
2026-04-28 15:39 51.89718 8.65795 35266 ft 455 kts 96°
2026-04-28 15:40 51.88799 8.75902 35265 ft 456 kts 96°
2026-04-28 15:40 51.87867 8.86066 35267 ft 456 kts 96°
2026-04-28 15:41 51.86942 8.96225 35271 ft 457 kts 96°
2026-04-28 15:41 51.86003 9.06401 35276 ft 458 kts 97°
2026-04-28 15:42 51.85041 9.16590 35276 ft 458 kts 96°
2026-04-28 15:42 51.84081 9.26703 35277 ft 459 kts 96°
2026-04-28 15:43 51.83104 9.36903 35280 ft 459 kts 97°
2026-04-28 15:43 51.82113 9.47122 35278 ft 460 kts 97°
2026-04-28 15:44 51.81118 9.57337 35281 ft 461 kts 97°
2026-04-28 15:44 51.80121 9.67508 35282 ft 461 kts 97°
2026-04-28 15:45 51.79098 9.77734 34350 ft 459 kts 99°
2026-04-28 15:45 51.78586 9.82824 34552 ft 458 kts 99°
2026-04-28 15:45 51.78075 9.87888 34755 ft 457 kts 99°
2026-04-28 15:46 51.77563 9.92949 34952 ft 456 kts 99°
2026-04-28 15:46 51.77050 9.98016 35011 ft 456 kts 99°
2026-04-28 15:46 51.76023 10.08122 35010 ft 456 kts 99°
2026-04-28 15:47 51.74985 10.18214 35010 ft 456 kts 99°
2026-04-28 15:47 51.73935 10.28307 35013 ft 456 kts 99°
2026-04-28 15:48 51.72885 10.38337 35019 ft 457 kts 100°
2026-04-28 15:48 51.71817 10.48427 35021 ft 457 kts 100°
2026-04-28 15:49 51.70739 10.58533 35023 ft 457 kts 100°
2026-04-28 15:49 51.69662 10.68624 35025 ft 457 kts 100°
2026-04-28 15:50 51.68569 10.78715 35026 ft 457 kts 100°
2026-04-28 15:50 51.67465 10.88787 35026 ft 457 kts 99°
2026-04-28 15:51 51.66861 10.98914 35025 ft 456 kts 95°
2026-04-28 15:51 51.66304 11.09097 35024 ft 456 kts 95°
2026-04-28 15:52 51.65738 11.19275 35023 ft 456 kts 95°
2026-04-28 15:52 51.65158 11.29469 35023 ft 456 kts 95°
2026-04-28 15:53 51.64565 11.39641 35022 ft 456 kts 96°
2026-04-28 15:53 51.63974 11.49744 35022 ft 456 kts 96°
2026-04-28 15:54 51.63375 11.59926 35023 ft 456 kts 96°
2026-04-28 15:54 51.62764 11.70092 35023 ft 456 kts 96°
2026-04-28 15:55 51.62136 11.80269 35024 ft 457 kts 96°
2026-04-28 15:55 51.61502 11.90433 35026 ft 457 kts 96°
2026-04-28 15:56 51.60872 12.00537 35027 ft 457 kts 96°
2026-04-28 15:56 51.60228 12.10703 35028 ft 457 kts 96°
2026-04-28 15:57 51.59564 12.20893 35028 ft 457 kts 96°
2026-04-28 15:57 51.58892 12.31053 35027 ft 457 kts 96°
2026-04-28 15:58 51.58218 12.41201 35027 ft 457 kts 96°
2026-04-28 15:58 51.57541 12.51284 35027 ft 457 kts 96°
2026-04-28 15:59 51.56847 12.61431 35027 ft 457 kts 96°
2026-04-28 15:59 51.56142 12.71575 35027 ft 456 kts 97°
2026-04-28 16:00 51.55436 12.81725 35026 ft 456 kts 96°
2026-04-28 16:00 51.54820 12.91866 35025 ft 456 kts 95°
2026-04-28 16:01 51.54241 13.02022 35025 ft 456 kts 95°
2026-04-28 16:01 51.53631 13.12124 35025 ft 456 kts 96°
2026-04-28 16:02 51.52990 13.22244 35027 ft 457 kts 96°
2026-04-28 16:02 51.52292 13.32410 35027 ft 457 kts 98°
2026-04-28 16:03 51.51334 13.42440 35026 ft 456 kts 99°
2026-04-28 16:03 51.50284 13.52480 35025 ft 456 kts 99°
2026-04-28 16:04 51.49271 13.62534 35025 ft 456 kts 99°
2026-04-28 16:04 51.48301 13.72594 35026 ft 456 kts 99°
2026-04-28 16:05 51.47327 13.82658 35025 ft 456 kts 99°
2026-04-28 16:05 51.46334 13.92663 35027 ft 456 kts 99°
2026-04-28 16:06 51.45316 14.02718 35028 ft 457 kts 99°
2026-04-28 16:06 51.44291 14.12763 35028 ft 457 kts 99°
2026-04-28 16:07 51.43265 14.22802 35027 ft 456 kts 99°
2026-04-28 16:08 51.41709 14.37862 35027 ft 456 kts 99°
2026-04-28 16:08 51.40667 14.47827 35027 ft 456 kts 99°
2026-04-28 16:09 51.39085 14.62856 35029 ft 456 kts 100°
2026-04-28 16:10 51.37472 14.77879 35030 ft 457 kts 100°
2026-04-28 16:10 51.35837 14.92893 35030 ft 457 kts 100°
2026-04-28 16:11 51.33654 15.12860 35031 ft 457 kts 100°
2026-04-28 16:12 51.31972 15.27865 35033 ft 457 kts 100°
2026-04-28 16:13 51.30277 15.42886 35033 ft 457 kts 100°
2026-04-28 16:14 51.27985 15.62852 35033 ft 457 kts 101°
2026-04-28 16:15 51.25666 15.82745 35030 ft 457 kts 101°
2026-04-28 16:15 51.24500 15.92711 35030 ft 456 kts 101°
2026-04-28 16:16 51.22732 16.07633 35029 ft 456 kts 101°
2026-04-28 16:17 51.20932 16.22545 35028 ft 456 kts 101°
2026-04-28 16:17 51.19734 16.32437 35029 ft 456 kts 101°
2026-04-28 16:18 51.18527 16.42365 35029 ft 456 kts 101°
2026-04-28 16:18 51.17306 16.52300 35030 ft 457 kts 101°
2026-04-28 16:19 51.16071 16.62235 35030 ft 456 kts 101°
2026-04-28 16:19 51.14839 16.72084 35028 ft 456 kts 101°
2026-04-28 16:20 51.13589 16.81977 35027 ft 455 kts 102°
2026-04-28 16:20 51.12332 16.91865 35025 ft 456 kts 102°
2026-04-28 16:21 51.11076 17.01744 35025 ft 456 kts 102°
2026-04-28 16:21 51.09805 17.11622 35024 ft 455 kts 102°
2026-04-28 16:22 51.08526 17.21489 35023 ft 455 kts 102°
2026-04-28 16:22 51.07238 17.31357 35025 ft 455 kts 102°
2026-04-28 16:23 51.05942 17.41204 35021 ft 455 kts 102°
2026-04-28 16:23 51.04652 17.50976 35020 ft 455 kts 102°
2026-04-28 16:24 51.03344 17.60812 35015 ft 455 kts 102°
2026-04-28 16:24 51.02018 17.70652 35018 ft 455 kts 102°
2026-04-28 16:25 51.00683 17.80484 35017 ft 455 kts 102°
2026-04-28 16:25 50.99347 17.90308 35022 ft 456 kts 102°
2026-04-28 16:26 50.98006 18.00137 35024 ft 456 kts 102°
2026-04-28 16:26 50.96653 18.09958 35026 ft 456 kts 103°
2026-04-28 16:27 50.95289 18.19789 35029 ft 456 kts 103°
2026-04-28 16:28 50.93242 18.34433 34537 ft 454 kts 103°
2026-04-28 16:28 50.92780 18.37725 34316 ft 452 kts 103°
2026-04-28 16:28 50.92095 18.42592 34068 ft 454 kts 103°
2026-04-28 16:28 50.91177 18.49072 33414 ft 455 kts 103°
2026-04-28 16:29 50.89780 18.58891 32073 ft 458 kts 103°
2026-04-28 16:29 50.88610 18.67094 30908 ft 460 kts 103°
2026-04-28 16:30 50.87898 18.72038 30184 ft 461 kts 103°
2026-04-28 16:30 50.87181 18.77002 29439 ft 463 kts 103°
2026-04-28 16:30 50.86227 18.83594 28412 ft 464 kts 103°
2026-04-28 16:30 50.85738 18.86964 27870 ft 465 kts 103°
2026-04-28 16:31 50.85009 18.91958 27043 ft 467 kts 103°
2026-04-28 16:31 50.84276 18.96978 26180 ft 468 kts 103°
2026-04-28 16:31 50.83539 19.01997 25462 ft 466 kts 103°
2026-04-28 16:31 50.82806 19.06962 24861 ft 461 kts 103°
2026-04-28 16:32 50.82087 19.11815 24235 ft 456 kts 103°
2026-04-28 16:32 50.80653 19.21490 22968 ft 447 kts 103°
2026-04-28 16:32 50.79946 19.26255 22332 ft 443 kts 103°
2026-04-28 16:33 50.79240 19.30981 21692 ft 439 kts 103°
2026-04-28 16:33 50.78777 19.34081 21275 ft 436 kts 103°
2026-04-28 16:33 50.77856 19.40231 20427 ft 431 kts 103°
2026-04-28 16:33 50.77168 19.44808 19799 ft 427 kts 104°
2026-04-28 16:34 50.76480 19.49354 19180 ft 423 kts 104°
2026-04-28 16:34 50.75799 19.53849 18578 ft 419 kts 104°
2026-04-28 16:34 50.75119 19.58311 17987 ft 416 kts 104°
2026-04-28 16:34 50.74440 19.62729 17439 ft 412 kts 104°
2026-04-28 16:35 50.73768 19.67107 16897 ft 409 kts 104°
2026-04-28 16:35 50.73101 19.71463 16375 ft 406 kts 104°
2026-04-28 16:35 50.72439 19.75771 15813 ft 403 kts 104°
2026-04-28 16:35 50.71779 19.80044 15425 ft 398 kts 104°
2026-04-28 16:36 50.71120 19.84306 15173 ft 400 kts 104°
2026-04-28 16:36 50.70461 19.88561 14923 ft 399 kts 104°
2026-04-28 16:36 50.69799 19.92813 14671 ft 398 kts 104°
2026-04-28 16:36 50.69142 19.97039 14405 ft 396 kts 104°
2026-04-28 16:37 50.68487 20.01247 14157 ft 395 kts 104°
2026-04-28 16:37 50.67834 20.05441 13906 ft 394 kts 104°
2026-04-28 16:37 50.67178 20.09627 13656 ft 392 kts 104°
2026-04-28 16:38 50.65864 20.17938 13155 ft 389 kts 104°
2026-04-28 16:38 50.65212 20.22018 12910 ft 388 kts 104°
2026-04-28 16:38 50.64645 20.26167 12744 ft 387 kts 98°
2026-04-28 16:38 50.64329 20.30377 12776 ft 387 kts 97°
2026-04-28 16:39 50.64018 20.34596 12761 ft 387 kts 97°
2026-04-28 16:39 50.63702 20.38805 12760 ft 387 kts 97°
2026-04-28 16:39 50.63381 20.43016 12777 ft 387 kts 97°
2026-04-28 16:39 50.63058 20.47229 12778 ft 387 kts 97°
2026-04-28 16:40 50.62730 20.51435 12778 ft 387 kts 97°
2026-04-28 16:40 50.62399 20.55641 12772 ft 387 kts 97°
2026-04-28 16:40 50.62068 20.59853 12777 ft 387 kts 97°
2026-04-28 16:40 50.61737 20.64059 12778 ft 387 kts 97°
2026-04-28 16:41 50.61408 20.68264 12770 ft 387 kts 97°
2026-04-28 16:41 50.61078 20.72472 12778 ft 387 kts 97°
2026-04-28 16:41 50.60751 20.76630 12778 ft 387 kts 97°
2026-04-28 16:41 50.60417 20.80843 12762 ft 387 kts 97°
2026-04-28 16:42 50.60084 20.85047 12774 ft 387 kts 97°
2026-04-28 16:42 50.59749 20.89243 12775 ft 387 kts 97°
2026-04-28 16:42 50.59408 20.93449 12778 ft 387 kts 97°
2026-04-28 16:42 50.59063 20.97654 12771 ft 387 kts 97°
2026-04-28 16:43 50.58720 21.01851 12763 ft 387 kts 97°
2026-04-28 16:43 50.58422 21.06058 12776 ft 387 kts 92°
2026-04-28 16:43 50.58671 21.10264 12771 ft 387 kts 76°
2026-04-28 16:43 50.59578 21.14246 12782 ft 388 kts 68°
2026-04-28 16:44 50.60606 21.18165 12766 ft 387 kts 67°
2026-04-28 16:44 50.61654 21.22080 12773 ft 388 kts 67°
2026-04-28 16:44 50.62710 21.25984 12768 ft 388 kts 67°
2026-04-28 16:44 50.63769 21.29891 12763 ft 388 kts 67°
2026-04-28 16:45 50.64829 21.33808 12533 ft 387 kts 67°
2026-04-28 16:45 50.65866 21.37654 12275 ft 375 kts 67°
2026-04-28 16:45 50.66864 21.41384 12017 ft 363 kts 67°
2026-04-28 16:45 50.67824 21.45002 11773 ft 352 kts 67°
2026-04-28 16:46 50.68753 21.48508 11522 ft 342 kts 68°
2026-04-28 16:46 50.69643 21.51876 11275 ft 333 kts 68°
2026-04-28 16:46 50.70520 21.55203 11024 ft 324 kts 68°
2026-04-28 16:46 50.71375 21.58446 10773 ft 317 kts 68°
2026-04-28 16:47 50.72212 21.61620 10527 ft 310 kts 68°
2026-04-28 16:47 50.73032 21.64728 10272 ft 303 kts 68°
2026-04-28 16:47 50.73833 21.67771 10024 ft 297 kts 68°
2026-04-28 16:47 50.74621 21.70768 9770 ft 294 kts 68°
2026-04-28 16:48 50.75399 21.73738 9614 ft 293 kts 68°
2026-04-28 16:48 50.76178 21.76699 9491 ft 292 kts 68°
2026-04-28 16:48 50.76957 21.79667 9364 ft 292 kts 68°
2026-04-28 16:48 50.77736 21.82645 9238 ft 291 kts 68°
2026-04-28 16:49 50.78507 21.85601 9120 ft 291 kts 68°
2026-04-28 16:49 50.79278 21.88555 8991 ft 290 kts 68°
2026-04-28 16:49 50.80036 21.91466 8865 ft 290 kts 68°
2026-04-28 16:49 50.80800 21.94407 8745 ft 289 kts 68°
2026-04-28 16:50 50.81563 21.97351 8616 ft 289 kts 68°
2026-04-28 16:50 50.82322 22.00282 8492 ft 288 kts 68°
2026-04-28 16:50 50.83084 22.03216 8366 ft 288 kts 68°
2026-04-28 16:50 50.83845 22.06142 8239 ft 287 kts 68°
2026-04-28 16:51 50.84597 22.09042 8040 ft 280 kts 68°
2026-04-28 16:51 50.85324 22.11851 7919 ft 271 kts 68°
2026-04-28 16:51 50.86024 22.14561 7779 ft 261 kts 68°
2026-04-28 16:51 50.86696 22.17176 7644 ft 253 kts 68°
2026-04-28 16:52 50.87346 22.19711 7379 ft 250 kts 68°
2026-04-28 16:52 50.88000 22.22254 7074 ft 249 kts 68°
2026-04-28 16:52 50.88651 22.24784 6761 ft 248 kts 68°
2026-04-28 16:52 50.89301 22.27305 6442 ft 247 kts 68°
2026-04-28 16:53 50.89947 22.29822 6139 ft 245 kts 68°
2026-04-28 16:53 50.90586 22.32322 5829 ft 244 kts 68°
2026-04-28 16:53 50.91224 22.34817 5513 ft 243 kts 68°
2026-04-28 16:53 50.91852 22.37274 5315 ft 235 kts 68°
2026-04-28 16:54 50.92448 22.39611 5200 ft 223 kts 68°
2026-04-28 16:54 50.93014 22.41839 4931 ft 219 kts 68°
2026-04-28 16:54 50.93580 22.44076 4603 ft 218 kts 68°
2026-04-28 16:54 50.93961 22.45582 4372 ft 217 kts 68°
2026-04-28 16:55 50.94705 22.48517 3950 ft 216 kts 68°
2026-04-28 16:55 50.95262 22.50720 3782 ft 215 kts 68°
2026-04-28 16:55 50.95822 22.52927 3770 ft 216 kts 68°
2026-04-28 16:55 50.96384 22.55145 3774 ft 217 kts 68°
2026-04-28 16:56 50.96945 22.57366 3776 ft 217 kts 68°
2026-04-28 16:56 50.97516 22.59573 3776 ft 217 kts 64°
2026-04-28 16:56 50.98432 22.61459 3777 ft 217 kts 45°
2026-04-28 16:56 50.99496 22.63159 3769 ft 217 kts 45°
2026-04-28 16:57 51.00565 22.64859 3574 ft 216 kts 45°
2026-04-28 16:57 51.01612 22.66522 3509 ft 216 kts 45°
2026-04-28 16:57 51.02663 22.68225 3457 ft 216 kts 46°
2026-04-28 16:57 51.03686 22.69967 3406 ft 216 kts 47°
2026-04-28 16:58 51.04705 22.71722 3358 ft 216 kts 47°
2026-04-28 16:58 51.05722 22.73474 3308 ft 215 kts 47°
2026-04-28 16:58 51.06738 22.75226 3257 ft 215 kts 47°
2026-04-28 16:58 51.07752 22.76976 3207 ft 215 kts 47°
2026-04-28 16:59 51.08767 22.78725 3158 ft 215 kts 47°
2026-04-28 16:59 51.09784 22.80481 3107 ft 215 kts 47°
2026-04-28 16:59 51.10796 22.82228 3053 ft 215 kts 47°
2026-04-28 16:59 51.11793 22.83951 3007 ft 214 kts 47°
2026-04-28 17:00 51.12803 22.85697 2942 ft 215 kts 47°
2026-04-28 17:00 51.13814 22.87445 2853 ft 214 kts 47°
2026-04-28 17:00 51.14822 22.89187 2771 ft 213 kts 47°
2026-04-28 17:00 51.15831 22.90932 2773 ft 214 kts 47°
2026-04-28 17:01 51.16838 22.92675 2773 ft 214 kts 47°
2026-04-28 17:01 51.17844 22.94418 2773 ft 214 kts 47°
2026-04-28 17:01 51.18852 22.96165 2773 ft 214 kts 47°
2026-04-28 17:01 51.19858 22.97908 2773 ft 214 kts 47°
2026-04-28 17:02 51.20865 22.99655 2772 ft 214 kts 47°
2026-04-28 17:02 51.21551 23.00771 2765 ft 211 kts 39°
2026-04-28 17:02 51.23224 23.01861 2784 ft 183 kts
2026-04-28 17:02 51.24453 23.01723 2798 ft 174 kts 346°
2026-04-28 17:03 51.26458 22.99794 2773 ft 169 kts 310°
2026-04-28 17:03 51.27076 22.98242 2771 ft 168 kts 293°
2026-04-28 17:03 51.27374 22.96458 2772 ft 167 kts 275°
2026-04-28 17:04 51.27064 22.92818 2770 ft 166 kts 257°
2026-04-28 17:04 51.26815 22.91050 2716 ft 159 kts 257°
2026-04-28 17:05 51.26342 22.87698 2404 ft 151 kts 257°
2026-04-28 17:05 51.26111 22.86065 1932 ft 151 kts 256°
2026-04-28 17:05 51.25887 22.84485 1755 ft 137 kts 256°
2026-04-28 17:06 51.25473 22.81568 1667 ft 133 kts 256°
2026-04-28 17:06 51.25270 22.80141 1480 ft 129 kts 256°
2026-04-28 17:06 51.24875 22.77387 993 ft 121 kts 256°
2026-04-28 17:07 51.24657 22.76017 878 ft 144 kts 257°
2026-04-28 17:07 51.24474 22.74463 823 ft 137 kts 259°
2026-04-28 17:07 51.24266 22.73020 683 ft 131 kts 255°
2026-04-28 17:07 51.24067 22.71665 640 ft 112 kts 257°
2026-04-28 17:08 51.23955 22.70897 641 ft 31 kts 257°
2026-04-28 17:08 51.23929 22.70673 640 ft 16 kts 267°
2026-04-28 17:08 51.23908 22.70597 641 ft 5 kts 158°
2026-04-28 17:08 51.23911 22.70664 640 ft 11 kts 76°
2026-04-28 17:09 51.23940 22.70840 642 ft 22 kts 75°
2026-04-28 17:09 51.23986 22.71135 640 ft 19 kts 76°
2026-04-28 17:09 51.23989 22.71345 639 ft 16 kts 117°
2026-04-28 17:09 51.23905 22.71387 641 ft 16 kts 165°
2026-04-28 17:10 51.23802 22.71434 640 ft 8 kts 167°
2026-04-28 17:10 51.23776 22.71443 640 ft 5 kts 166°
2026-04-28 17:10 51.23749 22.71454 640 ft 3 kts 166°
2026-04-28 17:10 51.23732 22.71471 642 ft 4 kts 123°
2026-04-28 17:11 51.23735 22.71530 640 ft 0 kts 78°
2026-04-28 17:11 51.23740 22.71540 647 ft 2 kts 43°
2026-04-28 17:11 51.23752 22.71535 642 ft 1 kts 350°
2026-04-28 17:11 51.23753 22.71535 642 ft 0 kts 349°